Location: Lahitte
(43.6596°N, 0.6805°E)
Time: 10:55:52
(UTC+00:00)

NOSS 3-4 (A) - Pass Details

Date: 15 May 2026
Orbit: 769 x 1442 km, 63.4° (Epoch: 10 January)

Event Time Altitude Azimuth Distance (km) Brightness Sun altitude
Rises 20:40:21 0° 325° (NW) 3,666 8.3 -13.3°
Reaches altitude 10° 20:42:53 10° 331° (NNW) 2,806 7.2 -13.6°
Maximum altitude 20:49:21 49° 46° (NE) 1,448 4.4 -14.4°
Enters shadow 20:55:06 18° 114° (ESE) 2,686 5.2 -15.2°
